Location: Colebrook
(42.0017°N, 73.0973°W)
Time: 20:37:31
(UTC-04:00)

N. Korean satellite - Pass Details

Date: 02 October 2021
Orbit: 450 x 495 km, 97.3° (Epoch: 22 October)

Event Time Altitude Azimuth Distance (km) Brightness Sun altitude
Rises 05:39:45 0° 21° (NNE) 2,554 10.6 -14.0°
Reaches altitude 10° 05:41:57 10° 31° (NNE) 1,676 9.8 -13.6°
Maximum altitude 05:45:16 34° 97° (E) 825 8.4 -13.0°
Drops below altitude 10° 05:48:35 10° 164° (SSE) 1,680 9.4 -12.4°
Sets 05:50:47 0° 174° (S) 2,561 10.2 -11.9°
